Regional Weather Roundup
Issued by NWS

Home | Current Version | Previous Version | Text Only | Print | Product List | Glossary Off
Versions: 1 2 3 4 5 6 7 8 9 10 11 12 13 14 15 16 17 18 19 20 21 22 23 24 25 26 27 28 29 30 31 32 33 34 35 36 37 38 39 40 41 42 43 44 45 46 47 48 49 50

000
ASUS43 KMPX 290301
RWRMN
WEATHER ROUNDUP FOR MINNESOTA
NATIONAL WEATHER SERVICE TWIN CITIES/CHANHASSEN MN
1000 PM CDT FRI APR 28 2017


NOTE: "FAIR" INDICATES FEW OR NO CLOUDS BELOW 12,000 FEET WITH NO
SIGNIFICANT WEATHER AND/OR OBSTRUCTIONS TO VISIBILITY. N/A MEANS
CURRENT SKY AND/OR WEATHER CONDITIONS ARE NOT AVAILABLE.

MNZ060>063-068>070-290400-
   Twin Cities Metro

CITY           SKY/WX    TMP DP  RH WIND       PRES   REMARKS
TWIN CITIES    CLOUDY    46  28  49 VRB3      30.09R
ST PAUL        PTCLDY    42  33  70 CALM      30.10R
CRYSTAL        CLOUDY    41  28  60 CALM      30.08R
LAKEVILLE      PTCLDY    41  30  65 N3        30.08R
EDEN PRAIRIE   CLEAR     45  27  49 NE3       30.08R
SOUTH ST PAUL  PTCLDY    44  30  56 CALM      30.09R
LAKE ELMO      FAIR      37  34  87 CALM      30.10R
$$
MNZ001>005-007-008-013>017-022>024-027-028-290400-
   Northwest Minnesota

CITY           SKY/WX    TMP DP  RH WIND       PRES   REMARKS
BEMIDJI        CLEAR     31  19  61 W3        30.13R
HALLOCK        CLEAR     39  19  45 N5        30.15R
ROSEAU         CLEAR     37  18  44 NW5       30.13R
WARROAD        CLEAR     36  23  60 W3        30.13R
THIEF RVR FALL CLEAR     40  21  46 CALM      30.15R
CROOKSTON      CLEAR     43  28  56 CALM      30.15R
FOSSTON        CLEAR     30  19  64 CALM      30.15R
DETROIT LAKES  CLOUDY    41  27  56 N3        30.13R
MOORHEAD       CLOUDY    41  25  52 N6        30.15R
PARK RAPIDS    CLOUDY    37  18  46 N6        30.12R
MAHNOMEN       FAIR      40  24  52 NE6       30.13R
$$
MNZ006-009>011-018-025>026-290400-
   North Central Minnesota

CITY           SKY/WX    TMP DP  RH WIND       PRES   REMARKS
BAUDETTE       CLEAR     33  22  63 CALM      30.11R
FLAG ISLAND    CLEAR     39  19  45 SW5       30.11R
INTL FALLS     CLEAR     29  23  78 CALM      30.11R
WASKISH        CLEAR     32  27  80 CALM      30.13R
BIG FORK       CLEAR     30  23  74 CALM      30.12R
LONGVILLE      CLEAR     37  27  65 CALM      30.12R
GRAND RAPIDS   CLEAR     33  21  61 CALM      30.14R
CRANE LAKE     CLEAR     27  23  86 CALM      30.13R
ORR            CLEAR     30  19  64 CALM      30.09R
COOK           CLEAR     28  25  86 CALM      30.12R
WALKER         FAIR      35  23  62 W5        30.13R WCI  31
$$
MNZ012-019>021-037-290400-
   Northeast Minnesota

CITY           SKY/WX    TMP DP  RH WIND       PRES   REMARKS
DULUTH         PTCLDY    37  26  64 N7        30.11R
ELY            CLEAR     28  25  86 CALM      30.11R
HIBBING        CLEAR     27  23  85 CALM      30.11R
EVELETH        CLEAR     32  24  72 CALM      30.12R
DULUTH HARBOR  CLEAR     41  34  75 NE12      30.14R
TWO HARBORS    CLEAR     37  27  65 CALM      30.09R
SILVER BAY     CLOUDY    36  27  69 CALM      30.09R
GRAND MARAIS     N/A     38  28  67 VRB6      30.10R
G MARAIS ARPRT CLOUDY    30  23  74 CALM      30.07R
$$
MNZ029>031-032-039>041-046>048-054>057-064-290400-
   West Central Minnesota

CITY           SKY/WX    TMP DP  RH WIND       PRES   REMARKS
FERGUS FALLS   PTCLDY    39  25  56 N5        30.13R
WHEATON        CLOUDY    41  25  52 CALM      30.16R
MORRIS         CLOUDY    39  25  56 N9        30.11R
ALEXANDRIA     CLOUDY    41  24  51 N8        30.12R
ELBOW LAKE     FAIR      39  29  67 CALM      30.13R
WADENA         CLEAR     37  21  52 NW7       30.12R
GLENWOOD       PTCLDY    43  25  49 N9        30.11R
APPLETON       PTCLDY    43  25  49 N8        30.11R
BENSON         PTCLDY    46  18  31 NE9       30.12R
ORTONVILLE     CLOUDY    43  27  52 N13       30.11R
MADISON        CLOUDY    45  27  49 N16       30.10R
WILLMAR        FAIR      45  28  53 N9        30.11R
$$
MNZ033>034-036-042>043-049>051-058-059-290400-
   Central Minnesota

CITY           SKY/WX    TMP DP  RH WIND       PRES   REMARKS
ST CLOUD       MOCLDY    42  25  50 N7        30.10R
SAUK CENTRE    FAIR      42  21  42 N7        30.10R
PAYNESVILLE    MOCLDY    43  23  45 N6        30.09S
AITKIN         CLOUDY    39  21  48 N5        30.11R
PINE RIVER     CLEAR     39  23  52 N5        30.15R
BRAINERD       CLOUDY    39  20  46 N8        30.11R
STAPLES        CLEAR     39  16  38 CALM      30.11R
LONG PRAIRIE   FAIR      39  21  48 NW5       30.11R
LITTLE FALLS   CLOUDY    41  19  42 CALM      30.12R
LITCHFIELD     PTCLDY    43  27  52 N5        30.09R
BUFFALO        CLEAR     44  24  45 N3        30.09R
MAPLE LAKE     CLEAR     43  28  56 N5        30.10R
HUTCHINSON     CLEAR     41  32  69 CALM      30.10R
$$
MNZ037-044-045-052-053-290400-
   East Central Minnesota

CITY           SKY/WX    TMP DP  RH WIND       PRES   REMARKS
PRINCETON      CLOUDY    45  27  49 N5        30.10R
MORA           CLOUDY    43  27  52 NW6       30.10R
CAMBRIDGE      PTCLDY    45  28  53 CALM      30.08R
RUSH CITY      CLOUDY    39  28  64 CALM      30.10R
MOOSE LAKE     CLOUDY    39  25  56 N6        30.10R
HINCKLEY       FAIR      45  28  53 N7        30.10R
CLOQUET        CLEAR     37  21  52 N6        30.11R
MCGREGOR       CLOUDY    41  28  60 N6        30.12R
$$
MNZ071>073-080-081-089-090-097-098-290400-
   Southwest Minnesota

CITY           SKY/WX    TMP DP  RH WIND       PRES   REMARKS
MONTEVIDEO     CLOUDY    41  25  52 NE13      30.10R
GRANITE FALLS  CLEAR     42  25  51 N8        30.11R
CANBY          CLOUDY    44  24  46 CALM      30.12R
MARSHALL       CLEAR     36  24  62 NW6       30.11R
REDWOOD FALLS  CLEAR     44  25  47 N7        30.08R
OLIVIA         CLEAR     43  28  56 N7        30.08R
PIPESTONE      CLOUDY    41  21  45 NE6       30.09R
WINDOM         CLEAR     37  28  70 N8        30.07R
WORTHINGTON    CLOUDY    40  28  62 N9        30.06S
JACKSON        CLEAR     34  30  86 NE6       30.07R WCI  29
TRACY          CLEAR     40  27  59 N7        30.10R
SLAYTON        CLEAR     39  26  60 N6        30.07R
$$
MNZ065>067-074>077-082>085-091>093-290400-
   South Central Minnesota

CITY           SKY/WX    TMP DP  RH WIND       PRES   REMARKS
MANKATO        CLEAR     41  31  67 N7        30.08R
NEW ULM        CLEAR     45  27  49 CALM      30.07S
ST JAMES       CLEAR     39  30  70 N3        30.08R
FAIRMONT       CLOUDY    42  33  70 N8        30.06R
GLENCOE        PTCLDY    40  34  79 CALM      30.09R
FARIBAULT      PTCLDY    43  32  65 N3        30.08R
OWATONNA       PTCLDY    39  30  70 NE3       30.07R
WASECA         CLEAR     37  32  81 N5        30.08R
ALBERT LEA     CLEAR     37  30  75 NE6       30.06R
$$
MNZ078>079-086>088-094>096-290400-
   Southeast Minnesota

CITY           SKY/WX    TMP DP  RH WIND       PRES   REMARKS
ROCHESTER      CLOUDY    42  32  67 N9        30.06R
RED WING       PTCLDY    39  30  70 N3        30.08R
STANTON        PTCLDY    40  35  80 NE7       30.06S
DODGE CENTER   PTCLDY    39  34  81 N7        30.06R
WINONA         CLOUDY    43  34  70 NW5       30.08R
AUSTIN         CLOUDY    39  32  75 N5        30.05R
PRESTON        CLOUDY    39  32  75 N5        30.05R
$$
ABBREVIATIONS USED IN REMARKS
   TC - TEMPERATURES IN CELSIUS
  WCI - WIND CHILL INDEX
   HX - HEAT INDEX
  VSB - VISIBILITY
$$




USA.gov is the U.S. government's official web portal to all federal, state and local government web resources and services.